SCP
0 0 0 0 0 0 0 0 0 0 0 0 0 0 0 0 -0 0 0 0 0 0 0 0 0 0 0 0 0 0 0 0 0 0 0 0 0 0 0 0 0 0 0 0
0 0 0 0 0 0 0 0 0 0 0 0 0 -0 0 0 0 0 0 0 0 0 0 0 0 0 0 0 0 0 0 0 0 0 0 0 0 0 0 0 0 0 0 0
0 0 0 0 0 0 0 0 0 0 0 0 0 -0 0 0 0 0 0 0 0 0 0 0 0 0 0 0 0 0 0 0 0 0 0 0 0 0 0 0 0 0 0 0
0 0 0 0 0 0 0 0 0 0 0 0 0 -0 0 -0 -0 0 0 0 0 0 0 0 0 0 0 0 0 0 0 0 0 0 0 0 0 0 0 0 0 0 0 0
0 0 0 0 0 0 0 0 0 0 0 0 0 0 0 0 0 -0 0 0 0 0 0 0 0 0 -0 -0 0 0 0 0 0 0 0 0 0 0 0 0 0 0 0 0
0 0 0 0 0 0 0 0 0 0 0 0 0 0 0 -0 0 0 0 0 0 0 0 0 0 -0 -0 -0 0 0 0 0 0 0 0 0 0 0 0 0 0 0 0 0
0 0 0 0 0 0 0 0 0 0 0 0 0 0 0 0 0 0 0 0 0 0 0 0 0 0 0 0 0 0 0 0 0 0 0 0 0 0 0 0 0 0 0 0
0 0 0 0 0 0 0 0 0 0 0 0 0 0 0 0 0 0 0 0 0 0 0 0 0 0 -0 -0 0 0 0 0 0 0 0 0 0 0 0 0 0 0 0 0
0 0 0 0 0 0 0 0 0 0 0 0 0 0 0 0 0 0 0 -0 0 0 0 -0 -0 -0 -0 -0 -0 0 0 0 0 0 0 0 0 0 0 0 0 0 0 0
0 0 0 0 0 0 0 0 0 0 0 0 0 0 0 0 0 0 0 0 0 -0 -0 -0 -0 -0 -0 -0 -0 0 0 0 0 0 0 0 0 0 0 0 0 0 0 0
0 0 0 0 0 0 0 0 0 0 0 0 0 0 0 0 0 -0 -0 -0 -0 0 0 0 -0 -0 0 0 0 0 0 0 0 0 0 0 0 0 0 0 0 0 0 0
0 0 0 0 0 0 0 0 0 0 0 0 0 0 0 0 0 -0 0 0 0 0 0 0 0 0 0 0 0 0 0 -0 0 0 0 0 0 0 0 0 0 0 0 0
0 0 0 0 0 0 0 0 0 0 0 0 0 0 0 0 0 0 0 0 0 0 0 0 0 0 0 0 0 0 0 0 0 -0 0 0 0 0 0 0 0 0 0 0
0 0 0 0 0 0 0 0 0 0 0 0 0 0 0 0 0 -0 -0 -0 0 0 0 0 0 0 0 0 0 0 0 0 0 0 0 0 0 0 0 0 0 0 0 0
0 0 0 0 0 0 0 0 0 0 0 0 0 0 0 0 -0 0 0 0 0 0 0 0 0 0 0 0 0 0 0 0 0 0 0 0 0 0 0 0 0 0 0 0
0 0 0 0 0 -0 -0 -0 0 0 0 0 0 0 0 0 0 0 0 0 0 0 0 0 0 0 0 0 0 0 0 0 0 0 0 0 0 0 0 0 0 0 0 0
0 0 0 0 -0 -0 -0 0 0 0 0 0 0 0 0 0 0 0 0 0 0 0 0 0 0 -0 0 0 0 0 0 0 0 0 0 0 0 0 0 0 0 0 0 0
0 0 0 0 0 0 0 0 0 0 0 0 0 0 0 0 0 0 0 0 0 0 0 -0 -0 0 0 0 0 0 0 0 0 0 0 0 0 0 0 0 0 0 0 0
0 0 0 0 0 0 0 0 0 0 0 0 0 0 0 0 0 -0 -0 -0 0 -0 -0 -0 -0 -0 -0 -0 -0 -0 0 0 0 0 0 0 0 0 0 0 0 0 0 0
0 0 0 0 0 0 0 0 0 0 0 0 0 0 -0 -0 0 0 -0 -0 -0 -0 -0 -0 -0 -0 -0 -0 -0 -0 -0 -0 -0 -0 0 0 0 0 0 0 0 0 0 0
0 0 0 0 0 0 0 0 0 0 0 0 0 0 -0 0 -0 -0 -0 0 0 0 -0 -0 -0 -0 -0 -0 -0 -0 -0 0 -0 -0 -0 -0 -0 0 0 0 0 0 0 0
0 0 0 0 0 0 0 0 0 0 0 0 0 0 0 0 0 0 0 0 0 0 0 0 0 -0 -0 -0 -0 -0 -0 -0 -0 0 0 -0 -0 -0 0 0 0 0 0 0
0 0 0 0 0 0 0 0 0 0 0 0 0 0 0 0 0 0 0 0 0 0 0 0 0 0 0 -0 -0 -0 -0 -0 -0 -0 -0 0 -0 -0 0 0 0 0 0 0
0 0 0 0 0 0 0 0 0 0 0 0 0 0 0 0 0 0 0 0 0 0 0 0 0 0 0 0 0 -0 -0 -0 -0 -0 -0 -0 -0 -0 0 0 0 0 0 0
0 0 0 0 0 0 0 0 0 0 0 0 0 0 0 0 0 0 0 0 0 0 0 0 0 0 0 0 0 0 -0 -0 -0 -0 -0 -0 -0 0 0 0 0 0 0 0
0 0 0 0 0 0 0 0 0 0 0 0 0 0 0 0 0 0 0 0 0 0 0 0 0 0 0 0 0 0 0 -0 -0 -0 -0 -0 -0 0 0 0 0 0 0 0
Wind_Speed_500mb
9 8 18 45 28 3 6 11 16 17 16 5 30 37 35 55 65 65 71 78 94 103 105 95 86 76 69 65 70 84 81 82 86 91 98 101 103 97 94 92 89 87 85 83
6 14 29 6 5 13 18 25 28 28 32 10 28 45 32 34 46 83 77 73 83 83 93 89 82 76 69 61 58 64 77 83 86 91 95 103 104 101 97 96 96 93 92 88
23 10 13 11 8 12 16 13 32 31 13 11 19 28 24 18 44 71 82 83 75 80 83 79 71 72 63 59 58 59 66 78 85 92 98 104 105 103 105 108 101 99 97 93
14 12 14 7 13 24 37 23 27 19 8 10 7 21 32 45 40 19 56 56 66 58 58 62 61 63 63 52 47 48 55 67 81 91 98 105 110 113 111 107 101 101 99 97
17 11 8 11 20 15 19 6 12 5 8 9 7 9 4 7 11 22 20 54 47 33 40 44 54 67 67 58 52 51 56 64 78 86 91 99 107 110 109 104 102 102 98 97
14 2 12 18 14 19 8 5 5 8 4 13 26 21 5 9 10 9 11 20 26 33 28 46 64 74 80 61 44 44 57 66 72 81 87 91 98 109 110 105 99 97 97 98
3 10 7 8 5 2 5 10 8 8 1 18 5 12 23 6 16 14 19 34 34 12 39 62 75 77 76 79 62 51 51 56 66 76 81 85 90 100 105 102 98 94 93 99
6 27 17 11 16 15 13 17 11 16 9 26 2 17 12 18 14 21 5 18 6 13 40 66 74 79 69 77 69 52 51 52 51 55 64 73 80 88 93 97 98 95 89 86
8 14 4 10 5 11 7 11 5 4 5 6 21 38 18 12 2 3 8 10 10 49 74 73 68 70 64 70 61 47 46 41 41 44 46 53 67 79 86 94 97 94 89 83
2 19 10 2 7 3 11 5 1 4 4 12 23 15 30 21 35 28 17 20 64 79 84 87 67 61 64 59 51 43 44 47 42 43 48 53 60 68 81 87 94 94 89 87
9 2 11 5 11 17 4 5 7 5 10 18 21 25 28 20 4 11 7 30 52 71 69 55 66 55 45 37 38 49 53 53 51 56 61 65 67 72 78 86 90 92 91 92
14 8 15 34 21 17 15 20 21 23 20 21 35 46 51 37 31 21 51 56 63 62 57 55 53 55 52 53 44 43 47 47 46 55 61 68 76 80 78 82 86 91 97 96
8 9 18 11 3 7 8 8 18 23 28 42 31 25 29 43 31 55 48 51 55 52 52 55 59 66 67 65 65 55 43 44 49 53 53 56 61 70 80 81 86 90 95 103
6 13 33 32 38 25 14 18 13 10 10 19 21 32 33 31 41 33 40 43 46 49 60 65 68 73 74 77 78 72 65 55 54 51 57 61 59 59 64 76 82 91 94 97
4 21 33 29 22 32 27 27 36 43 42 39 48 47 25 19 25 39 31 35 44 49 56 59 64 75 81 81 82 85 84 76 71 65 59 58 63 59 59 61 67 81 90 96
3 6 14 37 43 26 35 36 36 40 47 43 43 36 11 9 21 31 24 33 46 49 42 57 66 71 77 80 79 81 88 88 85 80 73 66 60 55 62 61 64 71 78 90
6 3 4 28 37 22 25 28 33 26 23 5 13 6 7 13 20 34 34 40 46 54 51 48 59 65 72 78 84 88 87 88 86 84 80 74 66 60 54 55 60 70 72 79
23 21 9 21 9 7 15 8 11 14 9 12 11 5 11 12 23 40 25 21 49 57 63 66 68 69 69 71 78 85 85 90 91 88 87 84 81 68 63 61 55 58 64 70
30 19 6 5 12 18 18 7 6 6 7 11 10 15 20 23 28 17 25 45 57 61 60 59 61 65 70 74 77 87 90 91 93 93 91 83 85 86 71 63 65 55 60 63
6 18 11 3 10 10 6 8 15 3 8 19 25 15 11 15 5 21 45 57 57 62 66 64 67 69 72 76 81 88 96 100 102 101 102 100 83 83 83 69 58 56 55 59
6 6 15 16 11 13 7 13 4 9 11 22 26 31 29 11 18 51 66 64 59 63 66 70 72 76 81 81 86 95 100 105 107 108 107 103 99 82 74 77 70 57 54 51
10 8 7 5 4 15 12 5 8 12 34 35 34 46 46 46 49 54 63 69 68 68 70 69 74 82 84 88 91 101 104 104 109 113 113 106 101 95 79 69 70 69 59 57
6 12 8 16 14 13 20 37 73 56 45 53 49 57 48 46 59 62 65 72 76 76 77 79 82 89 97 101 98 106 114 107 113 117 116 115 109 102 91 77 71 67 67 65
13 25 20 27 32 33 62 75 58 66 69 73 66 48 42 47 57 62 70 78 83 89 89 87 89 99 111 109 109 111 116 113 112 114 121 114 111 105 89 86 77 73 68 69
18 10 12 30 34 44 59 64 66 58 60 60 53 40 44 46 64 55 71 81 83 90 95 84 88 101 116 115 117 118 118 114 115 113 114 115 105 101 94 78 82 83 73 68
33 36 21 25 51 40 54 72 55 47 41 35 44 56 53 53 65 66 82 82 83 91 97 97 98 98 112 112 121 117 112 106 104 109 106 103 96 93 89 80 78 82 76 67
Wind_Direction_500mb
181 140 198 223 203 242 182 233 247 257 262 265 262 265 264 269 283 273 269 271 274 276 287 289 291 293 292 286 272 261 257 251 241 239 238 236 236 235 234 233 233 233 232 231
52 226 230 39 150 234 250 261 267 274 265 221 268 274 268 257 254 263 270 272 269 280 288 294 298 298 297 296 284 269 258 251 246 242 241 238 237 236 237 236 231 229 229 230
215 206 213 207 151 239 226 229 259 263 310 253 298 278 236 268 254 261 266 263 273 279 290 299 310 312 310 307 301 284 265 252 247 243 240 236 235 235 233 232 231 229 229 228
238 246 193 151 216 207 268 223 255 266 348 262 2 296 293 276 265 248 268 273 280 288 296 313 327 329 327 323 309 289 270 260 252 246 242 238 236 233 236 236 234 231 230 230
239 178 159 183 222 148 239 206 243 188 205 327 216 250 359 84 259 265 263 273 285 312 340 357 359 355 338 320 313 298 272 255 251 247 244 242 238 237 237 236 235 232 230 230
242 270 176 214 212 189 89 67 45 48 76 269 199 200 13 153 204 311 296 270 325 345 15 17 9 1 357 331 302 296 280 262 252 250 244 244 240 239 237 234 235 234 232 231
235 216 240 190 188 124 141 95 308 317 354 251 290 224 236 233 233 207 253 287 315 37 28 8 2 354 349 344 325 295 279 270 257 250 247 246 242 240 241 240 239 236 234 232
223 289 183 170 194 185 187 170 173 233 247 287 76 248 257 211 237 250 301 275 261 16 359 351 355 348 348 344 332 317 287 275 270 263 258 255 250 247 245 244 242 243 242 240
206 263 218 211 144 147 174 178 220 287 36 285 268 279 279 249 218 286 47 267 356 340 327 333 337 336 343 342 328 328 317 301 288 277 268 263 257 250 246 246 245 245 246 245
277 295 239 266 134 180 171 213 39 356 235 256 277 292 260 303 297 309 357 7 325 327 327 330 334 346 343 336 335 342 348 334 315 294 281 271 263 257 253 248 247 248 248 248
75 243 263 340 193 191 148 234 228 296 214 238 259 267 270 263 325 300 311 339 335 337 345 341 335 347 341 328 323 323 325 315 308 305 296 286 275 260 253 252 252 250 249 249
213 199 243 257 240 196 194 232 232 248 257 238 250 252 287 296 297 335 22 33 11 13 10 8 6 1 360 0 352 334 329 326 316 307 300 293 287 283 276 270 262 256 252 251
186 220 264 283 1 30 197 225 247 278 280 259 262 268 276 298 343 16 18 24 17 9 0 356 356 359 357 354 355 352 346 336 328 318 302 294 291 285 280 277 270 263 260 254
180 250 254 268 276 309 272 273 314 304 271 288 269 298 303 357 346 19 17 17 16 12 5 3 358 355 352 351 349 350 349 349 343 333 323 310 299 292 286 282 275 270 264 258
19 267 272 289 308 297 290 277 281 271 268 266 285 280 308 5 348 339 343 3 7 5 357 354 353 352 350 347 342 342 342 340 343 344 340 329 312 295 285 282 279 273 268 264
124 275 328 296 287 288 286 281 270 272 274 270 266 275 35 5 338 343 332 337 347 346 346 349 347 349 348 343 340 336 336 336 334 336 339 339 328 306 292 284 279 274 273 268
272 238 322 278 288 323 297 259 263 265 283 275 262 49 340 330 338 330 314 311 323 334 337 335 339 345 343 337 335 333 331 333 333 330 331 333 337 332 317 291 278 272 268 267
242 239 222 269 11 251 256 96 101 106 85 78 102 194 246 284 295 319 309 323 326 331 335 336 338 337 335 331 332 329 330 329 328 328 326 322 325 332 333 323 296 282 274 266
218 230 259 219 204 280 292 21 73 96 224 176 189 230 244 278 296 285 310 316 315 321 326 327 328 328 329 333 334 331 330 327 324 324 323 322 320 319 322 327 321 301 282 270
145 211 195 25 239 235 225 253 240 100 277 220 208 227 226 255 312 302 318 316 311 316 317 316 319 320 324 328 328 328 329 329 326 322 318 318 318 313 310 313 312 311 293 277
15 12 202 236 260 282 220 247 189 97 247 236 218 240 227 213 247 297 306 305 306 307 308 311 312 314 317 322 323 323 324 324 323 319 314 312 310 306 300 298 303 298 291 291
176 164 225 74 37 289 199 321 172 239 293 278 268 267 244 258 286 293 296 299 301 301 302 304 305 307 309 313 314 315 316 320 318 316 310 307 305 304 301 296 288 291 285 278
270 199 199 185 222 245 277 273 285 288 283 283 277 281 254 272 284 290 293 299 301 302 302 303 304 304 305 309 309 309 311 312 311 309 307 303 300 299 297 294 292 282 282 274
244 239 246 262 260 258 266 276 278 292 287 290 289 268 274 275 288 294 300 301 302 304 304 305 303 303 304 306 305 304 306 306 305 302 301 299 298 296 295 292 284 281 272 271
235 181 226 253 266 268 270 268 277 283 289 286 275 276 287 289 293 299 297 299 300 301 302 300 296 297 300 302 301 302 302 303 301 300 297 296 295 294 293 287 282 277 276 270
239 247 243 253 260 273 274 279 287 288 281 264 271 282 289 298 302 304 302 302 301 301 301 298 296 295 297 299 300 300 300 300 298 296 294 294 294 291 289 286 279 277 273 277
Wind_Speed_850mb
9 8 18 45 28 3 6 11 16 17 16 5 30 37 35 55 65 65 71 78 94 103 105 95 86 76 69 65 70 84 81 82 86 91 98 101 103 97 94 92 89 87 85 83
6 14 29 6 5 13 18 25 28 28 32 10 28 45 32 34 46 83 77 73 83 83 93 89 82 76 69 61 58 64 77 83 86 91 95 103 104 101 97 96 96 93 92 88
23 10 13 11 8 12 16 13 32 31 13 11 19 28 24 18 44 71 82 83 75 80 83 79 71 72 63 59 58 59 66 78 85 92 98 104 105 103 105 108 101 99 97 93
14 12 14 7 13 24 37 23 27 19 8 10 7 21 32 45 40 19 56 56 66 58 58 62 61 63 63 52 47 48 55 67 81 91 98 105 110 113 111 107 101 101 99 97
17 11 8 11 20 15 19 6 12 5 8 9 7 9 4 7 11 22 20 54 47 33 40 44 54 67 67 58 52 51 56 64 78 86 91 99 107 110 109 104 102 102 98 97
14 2 12 18 14 19 8 5 5 8 4 13 26 21 5 9 10 9 11 20 26 33 28 46 64 74 80 61 44 44 57 66 72 81 87 91 98 109 110 105 99 97 97 98
3 10 7 8 5 2 5 10 8 8 1 18 5 12 23 6 16 14 19 34 34 12 39 62 75 77 76 79 62 51 51 56 66 76 81 85 90 100 105 102 98 94 93 99
6 27 17 11 16 15 13 17 11 16 9 26 2 17 12 18 14 21 5 18 6 13 40 66 74 79 69 77 69 52 51 52 51 55 64 73 80 88 93 97 98 95 89 86
8 14 4 10 5 11 7 11 5 4 5 6 21 38 18 12 2 3 8 10 10 49 74 73 68 70 64 70 61 47 46 41 41 44 46 53 67 79 86 94 97 94 89 83
2 19 10 2 7 3 11 5 1 4 4 12 23 15 30 21 35 28 17 20 64 79 84 87 67 61 64 59 51 43 44 47 42 43 48 53 60 68 81 87 94 94 89 87
9 2 11 5 11 17 4 5 7 5 10 18 21 25 28 20 4 11 7 30 52 71 69 55 66 55 45 37 38 49 53 53 51 56 61 65 67 72 78 86 90 92 91 92
14 8 15 34 21 17 15 20 21 23 20 21 35 46 51 37 31 21 51 56 63 62 57 55 53 55 52 53 44 43 47 47 46 55 61 68 76 80 78 82 86 91 97 96
8 9 18 11 3 7 8 8 18 23 28 42 31 25 29 43 31 55 48 51 55 52 52 55 59 66 67 65 65 55 43 44 49 53 53 56 61 70 80 81 86 90 95 103
6 13 33 32 38 25 14 18 13 10 10 19 21 32 33 31 41 33 40 43 46 49 60 65 68 73 74 77 78 72 65 55 54 51 57 61 59 59 64 76 82 91 94 97
4 21 33 29 22 32 27 27 36 43 42 39 48 47 25 19 25 39 31 35 44 49 56 59 64 75 81 81 82 85 84 76 71 65 59 58 63 59 59 61 67 81 90 96
3 6 14 37 43 26 35 36 36 40 47 43 43 36 11 9 21 31 24 33 46 49 42 57 66 71 77 80 79 81 88 88 85 80 73 66 60 55 62 61 64 71 78 90
6 3 4 28 37 22 25 28 33 26 23 5 13 6 7 13 20 34 34 40 46 54 51 48 59 65 72 78 84 88 87 88 86 84 80 74 66 60 54 55 60 70 72 79
23 21 9 21 9 7 15 8 11 14 9 12 11 5 11 12 23 40 25 21 49 57 63 66 68 69 69 71 78 85 85 90 91 88 87 84 81 68 63 61 55 58 64 70
30 19 6 5 12 18 18 7 6 6 7 11 10 15 20 23 28 17 25 45 57 61 60 59 61 65 70 74 77 87 90 91 93 93 91 83 85 86 71 63 65 55 60 63
6 18 11 3 10 10 6 8 15 3 8 19 25 15 11 15 5 21 45 57 57 62 66 64 67 69 72 76 81 88 96 100 102 101 102 100 83 83 83 69 58 56 55 59
6 6 15 16 11 13 7 13 4 9 11 22 26 31 29 11 18 51 66 64 59 63 66 70 72 76 81 81 86 95 100 105 107 108 107 103 99 82 74 77 70 57 54 51
10 8 7 5 4 15 12 5 8 12 34 35 34 46 46 46 49 54 63 69 68 68 70 69 74 82 84 88 91 101 104 104 109 113 113 106 101 95 79 69 70 69 59 57
6 12 8 16 14 13 20 37 73 56 45 53 49 57 48 46 59 62 65 72 76 76 77 79 82 89 97 101 98 106 114 107 113 117 116 115 109 102 91 77 71 67 67 65
13 25 20 27 32 33 62 75 58 66 69 73 66 48 42 47 57 62 70 78 83 89 89 87 89 99 111 109 109 111 116 113 112 114 121 114 111 105 89 86 77 73 68 69
18 10 12 30 34 44 59 64 66 58 60 60 53 40 44 46 64 55 71 81 83 90 95 84 88 101 116 115 117 118 118 114 115 113 114 115 105 101 94 78 82 83 73 68
33 36 21 25 51 40 54 72 55 47 41 35 44 56 53 53 65 66 82 82 83 91 97 97 98 98 112 112 121 117 112 106 104 109 106 103 96 93 89 80 78 82 76 67
Wind_Direction_850mb
181 140 198 223 203 242 182 233 247 257 262 265 262 265 264 269 283 273 269 271 274 276 287 289 291 293 292 286 272 261 257 251 241 239 238 236 236 235 234 233 233 233 232 231
52 226 230 39 150 234 250 261 267 274 265 221 268 274 268 257 254 263 270 272 269 280 288 294 298 298 297 296 284 269 258 251 246 242 241 238 237 236 237 236 231 229 229 230
215 206 213 207 151 239 226 229 259 263 310 253 298 278 236 268 254 261 266 263 273 279 290 299 310 312 310 307 301 284 265 252 247 243 240 236 235 235 233 232 231 229 229 228
238 246 193 151 216 207 268 223 255 266 348 262 2 296 293 276 265 248 268 273 280 288 296 313 327 329 327 323 309 289 270 260 252 246 242 238 236 233 236 236 234 231 230 230
239 178 159 183 222 148 239 206 243 188 205 327 216 250 359 84 259 265 263 273 285 312 340 357 359 355 338 320 313 298 272 255 251 247 244 242 238 237 237 236 235 232 230 230
242 270 176 214 212 189 89 67 45 48 76 269 199 200 13 153 204 311 296 270 325 345 15 17 9 1 357 331 302 296 280 262 252 250 244 244 240 239 237 234 235 234 232 231
235 216 240 190 188 124 141 95 308 317 354 251 290 224 236 233 233 207 253 287 315 37 28 8 2 354 349 344 325 295 279 270 257 250 247 246 242 240 241 240 239 236 234 232
223 289 183 170 194 185 187 170 173 233 247 287 76 248 257 211 237 250 301 275 261 16 359 351 355 348 348 344 332 317 287 275 270 263 258 255 250 247 245 244 242 243 242 240
206 263 218 211 144 147 174 178 220 287 36 285 268 279 279 249 218 286 47 267 356 340 327 333 337 336 343 342 328 328 317 301 288 277 268 263 257 250 246 246 245 245 246 245
277 295 239 266 134 180 171 213 39 356 235 256 277 292 260 303 297 309 357 7 325 327 327 330 334 346 343 336 335 342 348 334 315 294 281 271 263 257 253 248 247 248 248 248
75 243 263 340 193 191 148 234 228 296 214 238 259 267 270 263 325 300 311 339 335 337 345 341 335 347 341 328 323 323 325 315 308 305 296 286 275 260 253 252 252 250 249 249
213 199 243 257 240 196 194 232 232 248 257 238 250 252 287 296 297 335 22 33 11 13 10 8 6 1 360 0 352 334 329 326 316 307 300 293 287 283 276 270 262 256 252 251
186 220 264 283 1 30 197 225 247 278 280 259 262 268 276 298 343 16 18 24 17 9 0 356 356 359 357 354 355 352 346 336 328 318 302 294 291 285 280 277 270 263 260 254
180 250 254 268 276 309 272 273 314 304 271 288 269 298 303 357 346 19 17 17 16 12 5 3 358 355 352 351 349 350 349 349 343 333 323 310 299 292 286 282 275 270 264 258
19 267 272 289 308 297 290 277 281 271 268 266 285 280 308 5 348 339 343 3 7 5 357 354 353 352 350 347 342 342 342 340 343 344 340 329 312 295 285 282 279 273 268 264
124 275 328 296 287 288 286 281 270 272 274 270 266 275 35 5 338 343 332 337 347 346 346 349 347 349 348 343 340 336 336 336 334 336 339 339 328 306 292 284 279 274 273 268
272 238 322 278 288 323 297 259 263 265 283 275 262 49 340 330 338 330 314 311 323 334 337 335 339 345 343 337 335 333 331 333 333 330 331 333 337 332 317 291 278 272 268 267
242 239 222 269 11 251 256 96 101 106 85 78 102 194 246 284 295 319 309 323 326 331 335 336 338 337 335 331 332 329 330 329 328 328 326 322 325 332 333 323 296 282 274 266
218 230 259 219 204 280 292 21 73 96 224 176 189 230 244 278 296 285 310 316 315 321 326 327 328 328 329 333 334 331 330 327 324 324 323 322 320 319 322 327 321 301 282 270
145 211 195 25 239 235 225 253 240 100 277 220 208 227 226 255 312 302 318 316 311 316 317 316 319 320 324 328 328 328 329 329 326 322 318 318 318 313 310 313 312 311 293 277
15 12 202 236 260 282 220 247 189 97 247 236 218 240 227 213 247 297 306 305 306 307 308 311 312 314 317 322 323 323 324 324 323 319 314 312 310 306 300 298 303 298 291 291
176 164 225 74 37 289 199 321 172 239 293 278 268 267 244 258 286 293 296 299 301 301 302 304 305 307 309 313 314 315 316 320 318 316 310 307 305 304 301 296 288 291 285 278
270 199 199 185 222 245 277 273 285 288 283 283 277 281 254 272 284 290 293 299 301 302 302 303 304 304 305 309 309 309 311 312 311 309 307 303 300 299 297 294 292 282 282 274
244 239 246 262 260 258 266 276 278 292 287 290 289 268 274 275 288 294 300 301 302 304 304 305 303 303 304 306 305 304 306 306 305 302 301 299 298 296 295 292 284 281 272 271
235 181 226 253 266 268 270 268 277 283 289 286 275 276 287 289 293 299 297 299 300 301 302 300 296 297 300 302 301 302 302 303 301 300 297 296 295 294 293 287 282 277 276 270
239 247 243 253 260 273 274 279 287 288 281 264 271 282 289 298 302 304 302 302 301 301 301 298 296 295 297 299 300 300 300 300 298 296 294 294 294 291 289 286 279 277 273 277